Great Bend, KS

3:24 PM CDT on May 23, 2017 (GMT -0500)
Great Bend Municipal

Weather History for KGBD - December, 2012

Change the Weather History Date:

Thursday, December 13, 2012

  Actual Average Record
Temperature  
Mean Temperature 40 °F -  
Max Temperature 57 °F 45 °F 71 °F (1988)
Min Temperature 23 °F 25 °F -5 °F (1961)
Degree Days  
Heating Degree Days 25    
Moisture  
Dew Point 18 °F    
Average Humidity 45    
Maximum Humidity 69    
Minimum Humidity 25    
Precipitation  
Precipitation 0.00 in - - ()
Sea Level Pressure  
Sea Level Pressure 29.98 in    
Wind  
Wind Speed 11 mph (South)    
Max Wind Speed 20 mph    
Max Gust Speed 22 mph    
Visibility 10 miles    
Events      
Averages and records for this station are not official NWS values.
T = Trace of Precipitation, MM = Missing Value Source: NWS Daily Summary

Daily Weather History Graph

Daily Weather History Graph

Search for Another Location

Airport or City:

Trip Planner

Search our weather history database for the weather conditions in past years. The results will help you decide how hot, cold, wet, or windy it might be!

Date:

Astronomy

Dec. 13, 2012 Rise Set
Actual Time 7:44 AM CST 5:15 PM CST
Civil Twilight 7:14 AM CST 5:45 PM CST
Nautical Twilight 6:41 AM CST 6:18 PM CST
Astronomical Twilight 6:09 AM CST 6:50 PM CST
Moon 7:54 AM CST (12/13) 5:59 PM CST (12/13)
Length of Visible Light 10h 30m
Length of Day
9h 31m
New Moon, 0% of the Moon is Illuminated
Dec 13
New Moon
Dec 19
First Quarter
Dec 28
Full
Jan 4
Last Quarter
Jan 11
New

Hourly Weather History & Observations

Time (CST) Temp. Windchill Dew Point Humidity Pressure Visibility Wind Dir Wind Speed Gust Speed Precip Events Conditions
12:15 AM 39.2 °F 29.6 °F 15.8 °F 39% 29.96 in 10.0 mi South 19.6 mph - N/A   Clear
12:35 AM 37.4 °F 27.8 °F 15.8 °F 41% 29.96 in 10.0 mi South 17.3 mph - N/A   Clear
12:55 AM 37.4 °F 28.5 °F 15.8 °F 41% 29.96 in 10.0 mi South 15.0 mph - N/A   Clear
1:15 AM 37.4 °F 27.8 °F 15.8 °F 41% 29.95 in 10.0 mi South 17.3 mph 21.9 mph N/A   Clear
1:35 AM 35.6 °F 26.6 °F 15.8 °F 44% 29.95 in 10.0 mi South 13.8 mph - N/A   Clear
1:55 AM 35.6 °F 26.6 °F 15.8 °F 44% 29.95 in 10.0 mi South 13.8 mph - N/A   Clear
2:15 AM 35.6 °F 25.9 °F 17.6 °F 48% 29.95 in 10.0 mi South 16.1 mph - N/A   Clear
2:35 AM 35.6 °F 26.6 °F 15.8 °F 44% 29.95 in 10.0 mi South 13.8 mph - N/A   Clear
2:55 AM 35.6 °F 27.1 °F 15.8 °F 44% 29.95 in 10.0 mi South 12.7 mph - N/A   Clear
3:15 AM 35.6 °F 25.5 °F 15.8 °F 44% 29.95 in 10.0 mi South 17.3 mph - N/A   Clear
3:35 AM 35.6 °F 27.1 °F 15.8 °F 44% 29.95 in 10.0 mi South 12.7 mph - N/A   Clear
3:55 AM 35.6 °F 26.6 °F 15.8 °F 44% 29.95 in 10.0 mi South 13.8 mph - N/A   Clear
4:15 AM 33.8 °F 25.8 °F 15.8 °F 48% 29.95 in 10.0 mi South 10.4 mph - N/A   Clear
4:35 AM 33.8 °F 27.0 °F 15.8 °F 48% 29.96 in 10.0 mi South 8.1 mph - N/A   Clear
4:55 AM 30.2 °F 23.4 °F 15.8 °F 55% 29.96 in 10.0 mi SSW 6.9 mph - N/A   Clear
5:15 AM 30.2 °F 25.4 °F 15.8 °F 55% 29.97 in 10.0 mi SSW 4.6 mph - N/A   Clear
5:35 AM 30.2 °F 25.4 °F 15.8 °F 55% 29.97 in 10.0 mi South 4.6 mph - N/A   Clear
5:55 AM 28.4 °F 23.3 °F 15.8 °F 59% 29.97 in 10.0 mi South 4.6 mph - N/A   Clear
6:15 AM 28.4 °F 22.2 °F 15.8 °F 59% 29.98 in 10.0 mi South 5.8 mph - N/A   Clear
6:55 AM 26.6 °F 22.6 °F 15.8 °F 64% 29.99 in 10.0 mi South 3.5 mph - N/A   Clear
7:15 AM 26.6 °F 21.2 °F 14.0 °F 59% 29.99 in 10.0 mi South 4.6 mph - N/A   Clear
7:35 AM 24.8 °F 17.9 °F 14.0 °F 64% 30.00 in 10.0 mi South 5.8 mph - N/A   Clear
7:55 AM 23.0 °F 13.9 °F 12.2 °F 63% 30.00 in 9.0 mi South 8.1 mph - N/A   Clear
8:15 AM 24.8 °F 17.9 °F 15.8 °F 69% 30.00 in 10.0 mi South 5.8 mph - N/A   Clear
8:35 AM 28.4 °F 23.3 °F 17.6 °F 64% 30.00 in 10.0 mi South 4.6 mph - N/A   Clear
8:55 AM 32.0 °F 26.4 °F 17.6 °F 55% 30.01 in 10.0 mi South 5.8 mph - N/A   Clear
9:15 AM 35.6 °F 28.6 °F 19.4 °F 52% 30.02 in 10.0 mi SSW 9.2 mph - N/A   Clear
9:35 AM 35.6 °F 28.0 °F 19.4 °F 52% 30.02 in 10.0 mi South 10.4 mph - N/A   Clear
9:55 AM 37.4 °F 30.8 °F 19.4 °F 48% 30.02 in 10.0 mi South 9.2 mph - N/A   Clear
10:15 AM 39.2 °F 33.0 °F 19.4 °F 45% 30.02 in 10.0 mi South 9.2 mph - N/A   Clear
10:35 AM 41.0 °F 37.1 °F 19.4 °F 42% 30.03 in 10.0 mi SSW 5.8 mph - N/A   Clear
10:55 AM 42.8 °F 39.3 °F 19.4 °F 39% 30.03 in 10.0 mi South 5.8 mph - N/A   Clear
11:15 AM 44.6 °F 40.7 °F 19.4 °F 37% 30.03 in 10.0 mi SW 6.9 mph - N/A   Clear
11:35 AM 46.4 °F 42.9 °F 19.4 °F 34% 30.02 in 10.0 mi South 6.9 mph - N/A   Clear
11:55 AM 48.2 °F - 19.4 °F 32% 30.02 in 10.0 mi South 10.4 mph - N/A   Clear
12:15 PM 48.2 °F - 19.4 °F 32% 30.01 in 10.0 mi South 8.1 mph - N/A   Clear
12:35 PM 50.0 °F - 19.4 °F 30% 30.00 in 10.0 mi South 8.1 mph - N/A   Clear
12:55 PM 50.0 °F - 19.4 °F 30% 30.00 in 10.0 mi South 4.6 mph - N/A   Clear
1:15 PM 51.8 °F - 19.4 °F 28% 30.00 in 10.0 mi South 5.8 mph - N/A   Clear
1:35 PM 53.6 °F - 19.4 °F 26% 29.99 in 10.0 mi South 6.9 mph - N/A   Clear
2:15 PM 53.6 °F - 21.2 °F 28% 29.97 in 10.0 mi South 9.2 mph - N/A   Clear
2:35 PM 53.6 °F - 19.4 °F 26% 29.97 in 10.0 mi South 3.5 mph - N/A   Clear
2:55 PM 53.6 °F - 21.2 °F 28% 29.97 in 10.0 mi South 3.5 mph - N/A   Clear
3:15 PM 55.4 °F - 21.2 °F 26% 29.96 in 10.0 mi Calm Calm - N/A   Clear
3:35 PM 55.4 °F - 19.4 °F 25% 29.96 in 10.0 mi SE 4.6 mph - N/A   Clear
3:55 PM 57.2 °F - 21.2 °F 25% 29.97 in 10.0 mi Calm Calm - N/A   Clear
4:15 PM 55.4 °F - 21.2 °F 26% 29.97 in 10.0 mi Calm Calm - N/A   Clear
4:35 PM 55.4 °F - 21.2 °F 26% 29.97 in 10.0 mi South 8.1 mph - N/A   Clear
6:15 PM 44.6 °F 41.4 °F 17.6 °F 34% 29.98 in 10.0 mi SSE 5.8 mph - N/A   Clear
7:15 PM 37.4 °F 30.8 °F 17.6 °F 45% 29.98 in 10.0 mi SE 9.2 mph - N/A   Clear
7:35 PM 37.4 °F 31.4 °F 19.4 °F 48% 29.98 in 10.0 mi SE 8.1 mph - N/A   Clear
7:55 PM 41.0 °F 36.4 °F 19.4 °F 42% 29.98 in 10.0 mi SE 6.9 mph - N/A   Clear
8:15 PM 37.4 °F 31.4 °F 17.6 °F 45% 29.98 in 10.0 mi SE 8.1 mph - N/A   Clear
8:35 PM 37.4 °F 32.1 °F 19.4 °F 48% 29.98 in 10.0 mi SE 6.9 mph - N/A   Clear
8:55 PM 37.4 °F 34.9 °F 19.4 °F 48% 29.98 in 10.0 mi SE 3.5 mph - N/A   Clear
9:15 PM 37.4 °F 34.9 °F 19.4 °F 48% 29.98 in 10.0 mi SE 3.5 mph - N/A   Clear
9:35 PM 35.6 °F 29.2 °F 19.4 °F 52% 29.97 in 10.0 mi SE 8.1 mph - N/A   Clear
9:55 PM 33.8 °F 27.0 °F 19.4 °F 56% 29.97 in 10.0 mi SSE 8.1 mph - N/A   Clear
10:15 PM 32.0 °F 25.6 °F 17.6 °F 55% 29.98 in 10.0 mi South 6.9 mph - N/A   Clear
10:35 PM 35.6 °F 30.7 °F 21.2 °F 56% 29.98 in 10.0 mi South 5.8 mph - N/A   Clear
10:55 PM 37.4 °F 33.8 °F 21.2 °F 52% 29.97 in 10.0 mi South 4.6 mph - N/A   Clear
11:15 PM 35.6 °F 28.6 °F 21.2 °F 56% 29.96 in 10.0 mi South 9.2 mph - N/A   Clear
11:35 PM 35.6 °F 29.2 °F 21.2 °F 56% 29.97 in 10.0 mi South 8.1 mph - N/A   Clear
11:55 PM 39.2 °F 32.5 °F 24.8 °F 56% 29.97 in 10.0 mi South 10.4 mph - N/A   Clear